Regional Weather Roundup
Issued by NWS Memphis, TN

Home | Current Version | Previous Version | Text Only | Print | Product List | Glossary On
Versions: 1 2 3 4 5 6 7 8 9 10 11 12 13 14 15 16 17 18 19 20 21 22 23 24 25 26 27 28 29 30 31 32 33 34 35 36 37 38 39 40 41 42 43 44 45 46 47 48 49 50
000
ASUS44 KMEG 251310
RWRMEG
MEMPHIS CWA HOURLY WEATHER ROUNDUP
NATIONAL WEATHER SERVICE MEMPHIS TN
800 AM CDT THU MAY 25 2017

...WEST TENNESSEE...

CITY           SKY/WX    TMP DP  RH WIND       PRES   REMARKS
MEMPHIS INTL   SUNNY     59  54  83 W9        29.78R
NWS MEMPHIS      N/A     57 N/A N/A MISG        N/A
JACKSON        SUNNY     58  54  86 W9        29.75R
COVINGTON      SUNNY     59  54  82 NW8       29.76R
BOLIVAR        SUNNY     59  54  82 VRB3      29.74S
LEXINGTON      SUNNY     57  52  82 MISG      29.74R
SELMER         SUNNY     55  52  88 W7        29.75R
SAVANNAH       SUNNY     57  54  88 W6        29.75R
DYERSBURG        N/A    N/A N/A N/A MISG        N/A
UNION CITY     SUNNY     59  54  82 W8G14     29.72R
PARIS          SUNNY     57  54  88 W8        29.70R
HUNTINGDON     SUNNY     57  54  88 W9        29.72R


...EASTERN ARKANSAS...

CITY           SKY/WX    TMP DP  RH WIND       PRES   REMARKS
JONESBORO      SUNNY     59  52  77 NW7       29.76R
WEST MEMPHIS   SUNNY     57  55  93 VRB5      29.77R
BATESVILLE     SUNNY     55  52  88 CALM      29.79R
WALNUT RIDGE   SUNNY     55  48  76 W8        29.77R
BLYTHEVILLE    SUNNY     59  53  80 NW6       29.75R
NW BLYTHEVILLE SUNNY     54  45  71 W8        29.75
SEARCY         SUNNY     57  54  89 CALM      29.82R
STUTTGART      SUNNY     61  46  59 W6        29.82R
PINE BLUFF     SUNNY     57  52  83 SW5       29.83R
MONTICELLO     SUNNY     60  53  77 W5        29.83R


...NORTH MISSISSIPPI...

CITY           SKY/WX    TMP DP  RH WIND       PRES   REMARKS
TUPELO         SUNNY     57  51  80 SW5       29.78R
OXFORD         SUNNY     55  54  94 W6        29.83R
BATESVILLE     SUNNY     57  54  89 SW6       29.81R
OLIVE BRANCH   SUNNY    N/A N/A N/A W5        29.76R
TUNICA         SUNNY     57  54  88 SW5       29.80R
CLARKSDALE       N/A     61  59  94 MISG      29.81R
CORINTH        SUNNY     57  54  88 VRB5      29.75S
GREENWOOD      SUNNY     58  56  93 S3        29.82R
COLUMBUS       SUNNY     58  57  94 W6        29.79R
STARKVILLE     SUNNY     55  54  94 W3        29.83R
GOLDEN TRIANGL SUNNY     57  48  72 W5        29.77R


...SOUTHEAST MISSOURI...

CITY           SKY/WX    TMP DP  RH WIND       PRES   REMARKS
KENNETT        SUNNY     61  54  77 NW8       29.73R
MALDEN         SUNNY     59  52  77 W8        29.74R
WEST PLAINS    SUNNY     55  51  86 NW5       29.77R
POPLAR BLUFF   SUNNY     57  51  80 NW7       29.73R
CAPE GIRARDEAU SUNNY     58  51  78 NW7       29.70R


...NORTHWEST ALABAMA...

CITY           SKY/WX    TMP DP  RH WIND       PRES   REMARKS
MUSCLE SHOALS  SUNNY     58  51  78 W10       29.77R


...MIDDLE TENNESSEE...

CITY           SKY/WX    TMP DP  RH WIND       PRES   REMARKS
NASHVILLE      CLOUDY    56  52  86 W7        29.69R
CLARKSVILLE    CLOUDY    57  52  83 W10       29.67R
COLUMBIA       SUNNY     57  52  82 SW9       29.70R


...WESTERN KENTUCKY...

CITY           SKY/WX    TMP DP  RH WIND       PRES   REMARKS
PADUCAH        MOSUNNY   60  51  72 W10       29.69R
FORT CAMPBELL  CLOUDY    57  55  91 W13       29.66R


...CENTRAL ARKANSAS...

CITY           SKY/WX    TMP DP  RH WIND       PRES   REMARKS
LITTLE ROCK    SUNNY     56  53  90 SW5       29.81R


SKY/WX REPORTED AS FAIR MEANS FEW OR NO CLOUDS BELOW
12 THOUSAND FEET.




USA.gov is the U.S. government's official web portal to all federal, state and local government web resources and services.